QPF
0.00 0.00 0.00 0.00 0.00 0.00 0.00 0.00 0.00 0.00 0.00 0.00 0.01 0.03 0.06 0.08 0.07 0.06 0.05 0.03 0.03 0.02 0.01 0.01 0.02 0.02 0.02 0.02 0.02 0.02 0.02 0.02 0.01 0.01 0.01 0.01 0.01 0.00 0.00 0.00 0.00 0.00 0.00 0.00
0.00 0.00 0.00 0.00 0.01 0.01 0.01 0.01 0.01 0.01 0.01 0.01 0.01 0.01 0.03 0.06 0.08 0.07 0.05 0.03 0.03 0.02 0.01 0.01 0.01 0.01 0.00 0.00 0.00 0.01 0.01 0.00 0.00 0.00 0.00 0.00 0.00 0.00 0.00 0.00 0.00 0.00 0.00 0.00
0.00 0.00 0.00 0.00 0.01 0.01 0.02 0.01 0.01 0.01 0.00 0.01 0.01 0.02 0.03 0.05 0.06 0.06 0.04 0.03 0.02 0.01 0.01 0.00 0.00 0.00 0.00 0.00 0.00 0.00 0.00 0.00 0.00 0.00 0.00 0.00 0.00 0.00 0.00 0.00 0.00 0.00 0.00 0.00
0.00 0.00 0.00 0.00 0.01 0.01 0.02 0.01 0.01 0.01 0.01 0.01 0.01 0.01 0.02 0.03 0.04 0.06 0.04 0.02 0.01 0.01 0.00 0.00 0.00 0.00 0.00 0.00 0.00 0.00 0.00 0.00 0.00 0.00 0.00 0.00 0.00 0.00 0.00 0.00 0.00 0.00 0.00 0.00
0.00 0.00 0.00 0.00 0.01 0.01 0.02 0.01 0.01 0.01 0.01 0.01 0.00 0.00 0.01 0.02 0.03 0.03 0.02 0.01 0.01 0.00 0.00 0.00 0.00 0.00 0.00 0.00 0.00 0.00 0.00 0.00 0.00 0.00 0.00 0.00 0.00 0.00 0.00 0.00 0.00 0.00 0.00 0.00
0.01 0.01 0.01 0.01 0.00 0.00 0.01 0.01 0.01 0.01 0.01 0.01 0.00 0.00 0.00 0.01 0.01 0.01 0.00 0.01 0.00 0.00 0.00 0.00 0.00 0.00 0.00 0.00 0.00 0.00 0.00 0.00 0.00 0.00 0.00 0.00 0.00 0.00 0.00 0.00 0.00 0.00 0.00 0.00
0.00 0.01 0.01 0.01 0.01 0.01 0.01 0.01 0.01 0.01 0.01 0.00 0.00 0.00 0.00 0.00 0.00 0.00 0.00 0.00 0.00 0.00 0.00 0.00 0.00 0.00 0.00 0.00 0.00 0.00 0.00 0.00 0.00 0.00 0.00 0.00 0.00 0.00 0.00 0.00 0.00 0.00 0.00 0.00
0.00 0.00 0.01 0.00 0.00 0.00 0.01 0.01 0.00 0.00 0.00 0.00 0.00 0.00 0.00 0.00 0.00 0.00 0.00 0.00 0.00 0.00 0.00 0.00 0.00 0.00 0.00 0.00 0.00 0.00 0.00 0.00 0.00 0.00 0.00 0.00 0.00 0.00 0.00 0.00 0.00 0.00 0.00 0.00
0.00 0.00 0.01 0.01 0.01 0.00 0.00 0.00 0.00 0.00 0.00 0.00 0.00 0.00 0.00 0.00 0.00 0.00 0.00 0.00 0.00 0.00 0.00 0.00 0.00 0.00 0.00 0.00 0.00 0.00 0.00 0.00 0.00 0.00 0.00 0.00 0.00 0.00 0.00 0.00 0.00 0.00 0.00 0.00
0.00 0.00 0.00 0.00 0.01 0.00 0.00 0.00 0.00 0.00 0.00 0.00 0.00 0.00 0.00 0.00 0.00 0.00 0.00 0.00 0.00 0.00 0.00 0.00 0.00 0.00 0.00 0.00 0.00 0.00 0.00 0.00 0.00 0.00 0.00 0.00 0.00 0.00 0.00 0.00 0.00 0.00 0.00 0.00
0.00 0.00 0.00 0.00 0.00 0.00 0.00 0.00 0.00 0.00 0.00 0.00 0.00 0.00 0.00 0.00 0.00 0.00 0.00 0.00 0.00 0.00 0.00 0.00 0.00 0.00 0.00 0.00 0.00 0.00 0.00 0.00 0.00 0.00 0.00 0.00 0.00 0.00 0.00 0.00 0.00 0.00 0.00 0.00
0.00 0.00 0.00 0.00 0.00 0.00 0.00 0.00 0.00 0.00 0.00 0.00 0.00 0.00 0.00 0.00 0.00 0.00 0.00 0.00 0.00 0.00 0.00 0.00 0.00 0.00 0.00 0.00 0.00 0.00 0.00 0.00 0.00 0.00 0.00 0.00 0.00 0.00 0.00 0.00 0.00 0.00 0.00 0.00
0.00 0.00 0.00 0.00 0.00 0.00 0.00 0.00 0.00 0.00 0.00 0.00 0.00 0.00 0.00 0.00 0.00 0.00 0.00 0.00 0.00 0.00 0.00 0.00 0.00 0.00 0.00 0.00 0.00 0.00 0.00 0.00 0.00 0.00 0.00 0.00 0.00 0.00 0.00 0.00 0.00 0.00 0.00 0.00
0.00 0.00 0.00 0.00 0.00 0.00 0.00 0.00 0.00 0.00 0.00 0.00 0.00 0.00 0.00 0.00 0.00 0.00 0.00 0.00 0.00 0.00 0.00 0.00 0.00 0.00 0.00 0.00 0.00 0.00 0.00 0.00 0.00 0.00 0.00 0.00 0.00 0.00 0.00 0.00 0.00 0.00 0.00 0.00
0.00 0.00 0.00 0.00 0.00 0.00 0.00 0.00 0.00 0.00 0.00 0.00 0.00 0.00 0.00 0.00 0.00 0.00 0.00 0.00 0.00 0.00 0.00 0.00 0.00 0.00 0.00 0.00 0.00 0.00 0.00 0.00 0.00 0.00 0.00 0.00 0.00 0.00 0.00 0.00 0.00 0.00 0.00 0.00
0.00 0.00 0.00 0.00 0.00 0.00 0.00 0.00 0.00 0.00 0.00 0.00 0.00 0.00 0.00 0.00 0.00 0.00 0.00 0.00 0.00 0.00 0.00 0.00 0.00 0.00 0.00 0.00 0.00 0.00 0.00 0.00 0.00 0.00 0.00 0.00 0.00 0.00 0.00 0.00 0.00 0.00 0.00 0.00
0.00 0.00 0.00 0.00 0.00 0.00 0.00 0.00 0.00 0.00 0.00 0.00 0.00 0.00 0.00 0.00 0.00 0.00 0.00 0.00 0.00 0.00 0.00 0.00 0.00 0.00 0.00 0.00 0.00 0.00 0.00 0.00 0.00 0.00 0.00 0.00 0.00 0.00 0.00 0.00 0.00 0.00 0.00 0.00
0.00 0.00 0.00 0.00 0.00 0.00 0.00 0.00 0.00 0.00 0.00 0.00 0.00 0.00 0.00 0.00 0.00 0.00 0.00 0.00 0.00 0.00 0.00 0.00 0.00 0.00 0.00 0.00 0.00 0.00 0.00 0.00 0.00 0.00 0.00 0.00 0.00 0.00 0.00 0.00 0.00 0.00 0.00 0.00
0.01 0.01 0.01 0.00 0.00 0.00 0.00 0.00 0.00 0.00 0.00 0.00 0.00 0.00 0.00 0.00 0.00 0.00 0.00 0.00 0.00 0.00 0.00 0.00 0.00 0.00 0.00 0.00 0.00 0.00 0.00 0.00 0.00 0.00 0.00 0.00 0.00 0.00 0.00 0.00 0.00 0.00 0.00 0.00
0.01 0.01 0.01 0.00 0.00 0.00 0.00 0.00 0.00 0.00 0.00 0.00 0.00 0.00 0.00 0.00 0.00 0.00 0.00 0.00 0.00 0.00 0.00 0.00 0.00 0.00 0.00 0.00 0.00 0.00 0.00 0.00 0.00 0.00 0.00 0.00 0.00 0.00 0.00 0.00 0.00 0.00 0.00 0.00
0.00 0.01 0.01 0.00 0.00 0.00 0.00 0.00 0.00 0.00 0.00 0.00 0.00 0.00 0.00 0.00 0.00 0.00 0.00 0.00 0.00 0.00 0.00 0.00 0.00 0.00 0.00 0.00 0.00 0.00 0.00 0.00 0.00 0.00 0.00 0.00 0.00 0.00 0.00 0.00 0.00 0.00 0.00 0.00
0.00 0.00 0.00 0.00 0.00 0.00 0.00 0.00 0.00 0.00 0.00 0.00 0.00 0.00 0.00 0.00 0.00 0.00 0.00 0.00 0.00 0.00 0.00 0.00 0.00 0.00 0.00 0.00 0.00 0.00 0.00 0.00 0.00 0.00 0.00 0.00 0.00 0.00 0.00 0.00 0.00 0.00 0.00 0.00
0.00 0.00 0.00 0.00 0.00 0.00 0.00 0.00 0.00 0.00 0.00 0.00 0.00 0.00 0.00 0.00 0.00 0.00 0.00 0.00 0.00 0.00 0.00 0.00 0.00 0.00 0.00 0.00 0.00 0.00 0.00 0.00 0.00 0.00 0.00 0.00 0.00 0.00 0.00 0.00 0.00 0.00 0.00 0.00
0.00 0.00 0.00 0.00 0.00 0.00 0.00 0.00 0.00 0.00 0.00 0.00 0.00 0.00 0.00 0.00 0.00 0.00 0.00 0.00 0.00 0.00 0.00 0.00 0.00 0.00 0.00 0.00 0.00 0.00 0.00 0.00 0.00 0.00 0.00 0.00 0.00 0.00 0.00 0.00 0.00 0.00 0.00 0.00
0.00 0.00 0.00 0.00 0.00 0.00 0.00 0.00 0.00 0.00 0.00 0.00 0.00 0.00 0.00 0.00 0.00 0.00 0.00 0.00 0.00 0.00 0.00 0.00 0.00 0.00 0.00 0.00 0.00 0.00 0.00 0.00 0.00 0.00 0.00 0.00 0.00 0.00 0.00 0.00 0.00 0.00 0.00 0.00
0.00 0.00 0.00 0.00 0.00 0.00 0.00 0.00 0.00 0.00 0.00 0.00 0.00 0.00 0.00 0.00 0.00 0.00 0.00 0.00 0.00 0.00 0.00 0.00 0.00 0.00 0.00 0.00 0.00 0.00 0.00 0.00 0.00 0.00 0.00 0.00 0.00 0.00 0.00 0.00 0.00 0.00 0.00 0.00
MSLP
1012.85 1013.58 1014.08 1014.38 1014.53 1014.63 1014.75 1014.96 1015.27 1015.68 1016.13 1016.54 1016.85 1017.00 1016.98 1016.79 1016.49 1016.14 1015.82 1015.57 1015.42 1015.38 1015.41 1015.48 1015.54 1015.57 1015.54 1015.47 1015.39 1015.33 1015.33 1015.42 1015.58 1015.82 1016.08 1016.32 1016.50 1016.59 1016.56 1016.42 1016.22 1015.97 1015.74 1015.56
1013.08 1013.70 1014.11 1014.34 1014.48 1014.62 1014.83 1015.16 1015.63 1016.18 1016.74 1017.21 1017.52 1017.61 1017.48 1017.16 1016.71 1016.23 1015.80 1015.48 1015.30 1015.25 1015.29 1015.38 1015.45 1015.48 1015.44 1015.37 1015.30 1015.26 1015.30 1015.45 1015.69 1016.00 1016.33 1016.61 1016.80 1016.86 1016.77 1016.56 1016.27 1015.94 1015.64 1015.41
1013.03 1013.53 1013.85 1014.04 1014.20 1014.42 1014.76 1015.28 1015.92 1016.64 1017.31 1017.83 1018.13 1018.14 1017.89 1017.40 1016.79 1016.17 1015.62 1015.23 1015.01 1014.95 1015.02 1015.13 1015.24 1015.29 1015.29 1015.23 1015.18 1015.17 1015.25 1015.45 1015.74 1016.10 1016.47 1016.78 1016.97 1017.01 1016.88 1016.61 1016.26 1015.87 1015.52 1015.26
1012.79 1013.16 1013.39 1013.56 1013.77 1014.11 1014.63 1015.35 1016.20 1017.08 1017.87 1018.44 1018.70 1018.62 1018.22 1017.56 1016.77 1015.99 1015.32 1014.85 1014.59 1014.54 1014.64 1014.80 1014.96 1015.06 1015.10 1015.08 1015.05 1015.07 1015.18 1015.39 1015.72 1016.10 1016.48 1016.80 1016.99 1017.01 1016.86 1016.57 1016.19 1015.78 1015.41 1015.13
1012.49 1012.72 1012.87 1013.04 1013.33 1013.81 1014.53 1015.46 1016.51 1017.55 1018.44 1019.04 1019.26 1019.06 1018.50 1017.66 1016.69 1015.75 1014.96 1014.41 1014.12 1014.09 1014.23 1014.45 1014.68 1014.85 1014.94 1014.96 1014.96 1014.98 1015.09 1015.31 1015.62 1016.00 1016.37 1016.68 1016.87 1016.89 1016.74 1016.45 1016.08 1015.68 1015.32 1015.03
1012.28 1012.38 1012.47 1012.64 1013.01 1013.64 1014.54 1015.66 1016.89 1018.07 1019.03 1019.63 1019.78 1019.46 1018.74 1017.72 1016.58 1015.49 1014.60 1013.98 1013.68 1013.67 1013.86 1014.16 1014.46 1014.70 1014.84 1014.90 1014.92 1014.94 1015.03 1015.21 1015.48 1015.82 1016.16 1016.45 1016.63 1016.67 1016.54 1016.29 1015.95 1015.59 1015.25 1014.98
1012.27 1012.25 1012.29 1012.48 1012.92 1013.67 1014.72 1015.99 1017.34 1018.60 1019.58 1020.15 1020.22 1019.78 1018.91 1017.73 1016.46 1015.25 1014.28 1013.63 1013.33 1013.34 1013.59 1013.96 1014.34 1014.65 1014.85 1014.94 1014.95 1014.96 1015.00 1015.12 1015.33 1015.61 1015.90 1016.16 1016.34 1016.38 1016.29 1016.09 1015.81 1015.49 1015.20 1014.95
1012.49 1012.38 1012.38 1012.58 1013.07 1013.90 1015.04 1016.39 1017.79 1019.06 1020.02 1020.52 1020.50 1019.94 1018.95 1017.67 1016.30 1015.03 1014.02 1013.37 1013.09 1013.15 1013.46 1013.90 1014.35 1014.72 1014.95 1015.06 1015.07 1015.03 1015.02 1015.07 1015.20 1015.40 1015.63 1015.85 1016.00 1016.06 1016.01 1015.86 1015.63 1015.37 1015.12 1014.89
1012.87 1012.71 1012.68 1012.89 1013.41 1014.26 1015.41 1016.76 1018.14 1019.35 1020.23 1020.64 1020.52 1019.88 1018.81 1017.48 1016.08 1014.81 1013.82 1013.20 1012.98 1013.10 1013.47 1013.97 1014.47 1014.87 1015.13 1015.24 1015.23 1015.16 1015.08 1015.05 1015.09 1015.20 1015.36 1015.53 1015.66 1015.72 1015.69 1015.58 1015.41 1015.20 1014.98 1014.78
1013.28 1013.11 1013.09 1013.30 1013.81 1014.64 1015.74 1017.01 1018.27 1019.37 1020.12 1020.42 1020.21 1019.51 1018.43 1017.12 1015.77 1014.57 1013.66 1013.12 1012.97 1013.15 1013.58 1014.12 1014.65 1015.08 1015.34 1015.45 1015.41 1015.29 1015.15 1015.04 1015.00 1015.02 1015.11 1015.21 1015.30 1015.35 1015.33 1015.25 1015.11 1014.94 1014.75 1014.55
1013.57 1013.46 1013.47 1013.69 1014.17 1014.92 1015.91 1017.02 1018.11 1019.03 1019.63 1019.81 1019.53 1018.83 1017.79 1016.57 1015.35 1014.29 1013.51 1013.09 1013.03 1013.28 1013.74 1014.30 1014.84 1015.26 1015.52 1015.60 1015.54 1015.38 1015.18 1015.01 1014.89 1014.84 1014.85 1014.89 1014.94 1014.95 1014.92 1014.84 1014.72 1014.56 1014.38 1014.19
1013.68 1013.66 1013.72 1013.95 1014.39 1015.04 1015.86 1016.77 1017.65 1018.36 1018.79 1018.85 1018.54 1017.86 1016.93 1015.87 1014.83 1013.96 1013.35 1013.07 1013.11 1013.42 1013.91 1014.46 1014.97 1015.37 1015.59 1015.65 1015.56 1015.37 1015.14 1014.92 1014.75 1014.63 1014.58 1014.56 1014.55 1014.53 1014.47 1014.37 1014.23 1014.07 1013.89 1013.70
1013.60 1013.69 1013.84 1014.08 1014.46 1014.98 1015.62 1016.30 1016.93 1017.43 1017.68 1017.65 1017.32 1016.72 1015.93 1015.07 1014.26 1013.60 1013.19 1013.06 1013.19 1013.54 1014.02 1014.54 1015.00 1015.34 1015.53 1015.55 1015.43 1015.23 1014.98 1014.74 1014.54 1014.39 1014.29 1014.21 1014.15 1014.08 1013.98 1013.85 1013.68 1013.50 1013.31 1013.12
1013.43 1013.65 1013.87 1014.12 1014.44 1014.82 1015.26 1015.70 1016.09 1016.37 1016.46 1016.35 1016.02 1015.52 1014.90 1014.26 1013.68 1013.26 1013.03 1013.03 1013.24 1013.60 1014.06 1014.51 1014.90 1015.17 1015.30 1015.28 1015.16 1014.95 1014.71 1014.48 1014.27 1014.10 1013.97 1013.86 1013.76 1013.64 1013.49 1013.32 1013.12 1012.91 1012.70 1012.49
1013.31 1013.64 1013.91 1014.16 1014.40 1014.64 1014.88 1015.09 1015.25 1015.31 1015.27 1015.09 1014.78 1014.38 1013.94 1013.51 1013.16 1012.94 1012.89 1012.99 1013.25 1013.60 1013.99 1014.36 1014.66 1014.85 1014.92 1014.87 1014.74 1014.55 1014.34 1014.13 1013.95 1013.80 1013.66 1013.53 1013.39 1013.23 1013.04 1012.83 1012.59 1012.35 1012.11 1011.87
1013.37 1013.77 1014.07 1014.29 1014.43 1014.52 1014.56 1014.55 1014.50 1014.38 1014.21 1013.98 1013.70 1013.40 1013.11 1012.87 1012.72 1012.67 1012.75 1012.93 1013.20 1013.51 1013.82 1014.10 1014.30 1014.40 1014.42 1014.35 1014.23 1014.07 1013.91 1013.75 1013.61 1013.49 1013.36 1013.23 1013.08 1012.89 1012.66 1012.41 1012.13 1011.85 1011.57 1011.31
1013.69 1014.09 1014.37 1014.52 1014.55 1014.48 1014.34 1014.13 1013.88 1013.61 1013.34 1013.06 1012.81 1012.59 1012.43 1012.35 1012.35 1012.43 1012.60 1012.82 1013.08 1013.33 1013.56 1013.74 1013.85 1013.88 1013.85 1013.78 1013.67 1013.56 1013.45 1013.36 1013.27 1013.19 1013.10 1012.98 1012.82 1012.61 1012.36 1012.07 1011.75 1011.43 1011.10 1010.79
1014.21 1014.56 1014.76 1014.81 1014.70 1014.48 1014.16 1013.78 1013.37 1012.97 1012.61 1012.30 1012.07 1011.92 1011.86 1011.90 1012.01 1012.18 1012.40 1012.64 1012.87 1013.07 1013.22 1013.32 1013.35 1013.33 1013.28 1013.20 1013.13 1013.06 1013.02 1012.99 1012.96 1012.93 1012.87 1012.76 1012.60 1012.38 1012.11 1011.78 1011.43 1011.05 1010.68 1010.32
1014.80 1015.04 1015.11 1015.02 1014.77 1014.39 1013.91 1013.39 1012.86 1012.36 1011.94 1011.62 1011.40 1011.31 1011.32 1011.43 1011.62 1011.85 1012.11 1012.35 1012.56 1012.72 1012.81 1012.85 1012.84 1012.79 1012.73 1012.67 1012.63 1012.62 1012.63 1012.65 1012.68 1012.68 1012.65 1012.55 1012.39 1012.16 1011.86 1011.50 1011.11 1010.69 1010.26 1009.85
1015.25 1015.35 1015.27 1015.02 1014.62 1014.09 1013.49 1012.85 1012.23 1011.68 1011.22 1010.89 1010.70 1010.65 1010.72 1010.89 1011.13 1011.40 1011.68 1011.93 1012.13 1012.27 1012.34 1012.36 1012.33 1012.29 1012.24 1012.21 1012.21 1012.24 1012.29 1012.36 1012.41 1012.43 1012.40 1012.31 1012.13 1011.88 1011.55 1011.17 1010.74 1010.27 1009.80 1009.33
1015.40 1015.33 1015.10 1014.70 1014.16 1013.51 1012.81 1012.09 1011.42 1010.84 1010.38 1010.06 1009.89 1009.88 1009.99 1010.21 1010.49 1010.80 1011.10 1011.37 1011.58 1011.73 1011.82 1011.85 1011.85 1011.84 1011.82 1011.83 1011.86 1011.92 1012.00 1012.08 1012.13 1012.15 1012.11 1011.99 1011.79 1011.51 1011.16 1010.74 1010.27 1009.77 1009.26 1008.75
1015.16 1014.94 1014.56 1014.03 1013.37 1012.64 1011.87 1011.12 1010.43 1009.85 1009.40 1009.10 1008.97 1008.99 1009.14 1009.39 1009.70 1010.05 1010.38 1010.69 1010.94 1011.13 1011.26 1011.34 1011.39 1011.42 1011.46 1011.51 1011.57 1011.65 1011.73 1011.80 1011.83 1011.82 1011.74 1011.59 1011.36 1011.04 1010.65 1010.20 1009.71 1009.19 1008.65 1008.12
1014.56 1014.22 1013.72 1013.10 1012.37 1011.58 1010.79 1010.03 1009.34 1008.78 1008.36 1008.09 1007.99 1008.03 1008.20 1008.48 1008.82 1009.19 1009.56 1009.91 1010.21 1010.46 1010.66 1010.82 1010.94 1011.04 1011.13 1011.22 1011.31 1011.39 1011.46 1011.50 1011.50 1011.45 1011.32 1011.12 1010.84 1010.48 1010.06 1009.59 1009.08 1008.54 1008.00 1007.46
1013.75 1013.33 1012.77 1012.08 1011.32 1010.52 1009.72 1008.98 1008.32 1007.78 1007.39 1007.14 1007.06 1007.11 1007.29 1007.57 1007.93 1008.31 1008.71 1009.10 1009.46 1009.77 1010.05 1010.28 1010.48 1010.65 1010.80 1010.93 1011.04 1011.13 1011.18 1011.19 1011.15 1011.04 1010.86 1010.61 1010.28 1009.89 1009.44 1008.95 1008.43 1007.89 1007.36 1006.84
1012.94 1012.49 1011.90 1011.20 1010.44 1009.65 1008.87 1008.16 1007.53 1007.02 1006.64 1006.41 1006.32 1006.36 1006.52 1006.79 1007.12 1007.50 1007.91 1008.32 1008.72 1009.09 1009.43 1009.73 1010.00 1010.24 1010.44 1010.61 1010.74 1010.83 1010.87 1010.86 1010.77 1010.62 1010.40 1010.10 1009.74 1009.32 1008.85 1008.35 1007.83 1007.31 1006.80 1006.31
1012.37 1011.92 1011.34 1010.66 1009.92 1009.17 1008.42 1007.74 1007.14 1006.64 1006.26 1006.02 1005.89 1005.90 1006.01 1006.22 1006.51 1006.85 1007.23 1007.63 1008.04 1008.44 1008.81 1009.17 1009.49 1009.78 1010.03 1010.23 1010.39 1010.49 1010.53 1010.50 1010.39 1010.22 1009.96 1009.64 1009.26 1008.82 1008.34 1007.84 1007.33 1006.83 1006.34 1005.89
Thickness
5755 5740 5731 5737 5740 5741 5737 5728 5724 5729 5738 5730 5723 5721 5724 5727 5727 5726 5725 5724 5724 5726 5728 5728 5727 5725 5724 5721 5719 5717 5715 5713 5709 5706 5702 5698 5695 5693 5691 5689 5687 5685 5684 5682
5742 5736 5752 5757 5752 5745 5738 5728 5725 5728 5734 5726 5716 5715 5718 5719 5719 5721 5721 5720 5721 5721 5722 5723 5722 5721 5719 5717 5715 5713 5710 5707 5704 5700 5696 5692 5688 5685 5682 5681 5679 5678 5676 5674
5742 5751 5763 5758 5750 5743 5737 5732 5728 5723 5724 5721 5714 5707 5708 5713 5716 5718 5720 5720 5721 5720 5720 5720 5719 5718 5716 5714 5712 5710 5706 5703 5699 5695 5690 5685 5681 5677 5674 5673 5671 5670 5668 5666
5751 5761 5760 5753 5748 5746 5732 5743 5738 5728 5712 5699 5703 5688 5702 5705 5708 5713 5717 5719 5720 5722 5722 5720 5719 5717 5715 5714 5711 5707 5703 5699 5695 5690 5685 5680 5674 5670 5667 5665 5662 5661 5660 5659
5751 5760 5756 5750 5752 5752 5739 5743 5734 5722 5708 5698 5696 5688 5693 5702 5703 5710 5717 5721 5724 5725 5724 5722 5721 5719 5717 5714 5710 5706 5701 5696 5691 5686 5681 5675 5669 5665 5661 5658 5655 5653 5652 5651
5758 5768 5765 5759 5759 5756 5745 5733 5722 5708 5698 5686 5690 5685 5689 5699 5707 5715 5722 5726 5728 5728 5727 5725 5723 5720 5716 5713 5709 5703 5698 5692 5687 5681 5676 5670 5664 5660 5655 5652 5649 5646 5644 5643
5748 5758 5765 5764 5748 5745 5738 5716 5693 5689 5677 5680 5690 5686 5691 5714 5721 5723 5725 5728 5730 5729 5727 5724 5721 5718 5714 5710 5705 5699 5693 5687 5681 5675 5670 5665 5660 5655 5650 5647 5643 5640 5638 5636
5732 5731 5756 5761 5753 5738 5732 5720 5693 5683 5677 5680 5688 5685 5704 5726 5730 5731 5730 5730 5730 5728 5726 5723 5720 5715 5711 5706 5700 5694 5687 5681 5675 5670 5665 5660 5655 5650 5646 5642 5639 5635 5633 5631
5730 5733 5761 5766 5766 5751 5729 5719 5715 5690 5684 5678 5684 5694 5713 5731 5730 5730 5729 5728 5727 5726 5724 5721 5716 5711 5706 5701 5694 5688 5681 5675 5670 5665 5660 5656 5651 5647 5642 5639 5635 5631 5628 5625
5742 5733 5750 5761 5762 5754 5744 5723 5702 5688 5676 5676 5686 5690 5697 5719 5725 5728 5726 5725 5724 5722 5719 5716 5710 5705 5699 5694 5688 5682 5676 5671 5666 5661 5656 5653 5648 5643 5639 5634 5630 5626 5623 5620
5744 5728 5734 5746 5745 5740 5735 5721 5702 5686 5685 5673 5672 5687 5720 5723 5728 5726 5726 5725 5721 5718 5714 5709 5703 5698 5693 5687 5682 5676 5671 5666 5662 5657 5652 5647 5643 5639 5634 5629 5625 5622 5618 5614
5737 5720 5715 5730 5746 5750 5744 5732 5709 5698 5688 5678 5675 5690 5734 5731 5730 5728 5725 5723 5719 5714 5708 5702 5697 5692 5686 5681 5676 5671 5667 5662 5658 5653 5648 5643 5639 5634 5629 5625 5621 5617 5612 5608
5734 5718 5704 5708 5719 5736 5736 5732 5717 5700 5685 5673 5675 5698 5733 5731 5729 5726 5723 5719 5714 5709 5702 5696 5691 5686 5681 5676 5672 5667 5663 5659 5655 5649 5644 5639 5634 5629 5624 5620 5616 5611 5607 5603
5741 5718 5708 5704 5709 5725 5727 5731 5716 5705 5689 5682 5688 5705 5723 5726 5724 5723 5720 5715 5708 5703 5697 5691 5686 5681 5677 5672 5668 5664 5660 5656 5651 5645 5639 5634 5629 5624 5619 5615 5610 5606 5601 5597
5742 5724 5722 5721 5726 5727 5726 5728 5724 5713 5709 5699 5707 5707 5721 5724 5722 5720 5716 5709 5704 5699 5694 5689 5683 5678 5673 5669 5665 5660 5656 5652 5647 5640 5635 5630 5625 5619 5614 5609 5605 5600 5596 5592
5735 5727 5724 5723 5731 5727 5724 5730 5731 5725 5721 5714 5715 5715 5729 5727 5721 5716 5711 5705 5699 5695 5692 5687 5682 5677 5671 5667 5662 5658 5653 5648 5642 5636 5630 5626 5620 5615 5609 5605 5600 5595 5590 5586
5724 5720 5711 5707 5718 5723 5714 5730 5733 5731 5729 5721 5714 5722 5728 5721 5716 5713 5708 5703 5698 5695 5691 5686 5681 5676 5670 5665 5660 5654 5650 5644 5637 5631 5626 5621 5615 5610 5605 5600 5594 5589 5584 5580
5720 5711 5701 5700 5711 5702 5717 5740 5738 5733 5733 5728 5726 5727 5723 5721 5719 5716 5710 5703 5698 5695 5690 5685 5680 5674 5669 5663 5657 5651 5645 5639 5633 5627 5622 5617 5611 5605 5600 5594 5589 5584 5579 5574
5725 5711 5696 5690 5694 5703 5723 5738 5736 5730 5729 5733 5727 5726 5720 5715 5713 5710 5711 5705 5701 5697 5692 5686 5680 5674 5667 5661 5654 5647 5641 5635 5628 5623 5618 5612 5606 5600 5595 5589 5584 5579 5573 5569
5717 5713 5698 5688 5692 5691 5719 5743 5744 5733 5718 5734 5727 5720 5712 5708 5695 5702 5714 5706 5701 5696 5690 5684 5678 5670 5663 5658 5650 5642 5637 5630 5625 5620 5614 5608 5602 5595 5590 5584 5579 5574 5569 5564
5709 5703 5696 5688 5689 5700 5731 5741 5738 5710 5712 5738 5729 5721 5710 5707 5710 5714 5714 5706 5701 5695 5689 5682 5675 5667 5661 5655 5646 5638 5633 5627 5623 5616 5610 5604 5598 5591 5585 5580 5575 5570 5565 5560
5705 5697 5692 5683 5686 5698 5739 5733 5723 5725 5740 5739 5732 5725 5717 5716 5715 5711 5708 5703 5697 5691 5686 5679 5671 5664 5659 5651 5642 5635 5630 5626 5619 5612 5606 5600 5594 5587 5583 5576 5571 5565 5560 5555
5703 5704 5699 5698 5706 5728 5735 5735 5740 5739 5736 5737 5733 5729 5723 5716 5711 5708 5703 5698 5694 5689 5683 5676 5668 5661 5654 5647 5639 5632 5629 5622 5614 5607 5601 5595 5589 5583 5577 5571 5566 5561 5556 5551
5711 5709 5703 5701 5715 5727 5732 5735 5738 5739 5738 5740 5737 5732 5724 5716 5713 5707 5701 5696 5691 5686 5679 5672 5663 5656 5650 5644 5637 5631 5625 5618 5609 5603 5596 5590 5584 5579 5573 5567 5562 5557 5554 5549
5710 5708 5700 5700 5712 5720 5731 5735 5737 5738 5738 5736 5734 5730 5725 5718 5712 5706 5700 5695 5690 5683 5676 5667 5660 5653 5648 5642 5635 5629 5621 5613 5605 5598 5592 5586 5580 5574 5569 5564 5559 5555 5551 5545
5700 5698 5694 5698 5713 5710 5716 5728 5732 5731 5731 5731 5727 5724 5720 5716 5712 5705 5699 5694 5687 5680 5672 5663 5656 5650 5644 5637 5631 5625 5617 5608 5600 5593 5587 5581 5575 5570 5565 5561 5558 5555 5550 5545